| time (UTC) | temp F | wind direction | speed MPH | gust MPH | rain 1hr in | rain 24hr in | rain mn in | humidity % | barometer mb |
| 20260506134252 | 53 | 0.0 | 0.0 | 0.06 | 0.00 | 0.13 | 80 | 1015.3 | |
| 20260506132752 | 53 | 0.0 | 0.0 | 0.07 | 0.00 | 0.13 | 80 | 1015.4 | |
| 20260506131252 | 53 | 0.0 | 0.0 | 0.05 | 0.00 | 0.09 | 80 | 1015.6 | |
| 20260506124810 | 56 | 0.0 | 0.0 | 0.01 | 0.00 | 0.06 | 80 | 1014.2 | |
| 20260506123310 | 56 | 0.0 | 0.0 | 0.01 | 0.00 | 0.06 | 80 | 1014.2 | |
| 20260506121811 | 58 | 0.0 | 0.0 | 0.00 | 0.00 | 0.05 | 78 | 1013.5 | |
| 20260506120311 | 59 | 0.0 | 0.0 | 0.00 | 0.00 | 0.05 | 79 | 1012.6 | |
| 20260506114810 | 59 | 0.0 | 0.0 | 0.00 | 0.00 | 0.05 | 80 | 1012.7 | |
| 20260506113310 | 58 | 0.0 | 0.0 | 0.00 | 0.00 | 0.05 | 80 | 1012.8 | |
| 20260506111810 | 58 | 0.0 | 0.0 | 0.00 | 0.00 | 0.05 | 80 | 1013.0 | |
| 20260506110310 | 57 | 0.0 | 0.0 | 0.00 | 0.00 | 0.05 | 80 | 1013.4 | |
| 20260506104810 | 56 | 0.0 | 0.0 | 0.00 | 0.00 | 0.05 | 80 | 1013.6 | |
| 20260506103310 | 56 | 0.0 | 0.0 | 0.00 | 0.00 | 0.05 | 81 | 1013.5 | |
| 20260506101810 | 56 | 0.0 | 0.0 | 0.00 | 0.00 | 0.05 | 81 | 1013.5 | |
| 20260506100311 | 56 | 0.0 | 0.0 | 0.00 | 0.00 | 0.05 | 81 | 1013.0 | |
| 20260506094811 | 57 | 0.0 | 0.0 | 0.00 | 0.00 | 0.05 | 81 | 1012.9 | |
| 20260506093311 | 57 | 0.0 | 0.0 | 0.00 | 0.00 | 0.04 | 81 | 1013.1 | |
| 20260506091811 | 57 | 0.0 | 0.0 | 0.00 | 0.00 | 0.04 | 81 | 1013.0 | |
| 20260506090311 | 57 | 0.0 | 0.0 | 0.00 | 0.00 | 0.04 | 81 | 1012.8 | |
| 20260506084810 | 56 | 0.0 | 0.0 | 0.00 | 0.00 | 0.04 | 81 | 1012.9 | |
| 20260506083311 | 56 | 0.0 | 0.0 | 0.00 | 0.00 | 0.04 | 81 | 1013.3 | |
| 20260506081811 | 55 | 0.0 | 0.0 | 0.00 | 0.00 | 0.04 | 81 | 1013.3 | |
| 20260506080310 | 55 | 0.0 | 0.0 | 0.00 | 0.00 | 0.04 | 81 | 1013.4 | |
| 20260506073310 | 54 | 0.0 | 0.0 | 0.00 | 0.00 | 0.04 | 81 | 1013.5 | |
| 20260506071811 | 54 | 0.0 | 0.0 | 0.00 | 0.00 | 0.04 | 81 | 1013.6 | |
| 20260506070311 | 55 | 0.0 | 0.0 | 0.00 | 0.00 | 0.04 | 81 | 1013.6 | |
| 20260506061811 | 55 | 0.0 | 0.0 | 0.00 | 0.00 | 0.04 | 81 | 1014.3 | |
| 20260506060311 | 55 | 0.0 | 0.0 | 0.00 | 0.00 | 0.04 | 81 | 1014.3 | |
| 20260506050311 | 54 | 0.0 | 0.0 | 0.00 | 0.00 | 0.04 | 81 | 1014.7 | |
| 20260506044812 | 55 | 0.0 | 0.0 | 0.00 | 0.00 | 0.04 | 81 | 1014.7 | |
| 20260506043310 | 55 | 0.0 | 0.0 | 0.01 | 0.00 | 0.04 | 81 | 1014.6 | |
| 20260506041811 | 55 | 0.0 | 0.0 | 0.03 | 0.00 | 0.04 | 81 | 1014.8 | |
| 20260506040310 | 55 | 0.0 | 0.0 | 0.04 | 0.00 | 0.04 | 81 | 1014.8 | |
| 20260506034811 | 55 | 0.0 | 0.0 | 0.04 | 0.00 | 0.04 | 81 | 1015.0 | |
| 20260506033310 | 55 | 0.0 | 0.0 | 0.03 | 0.00 | 0.03 | 80 | 1015.1 | |
| 20260506031811 | 55 | 0.0 | 0.0 | 0.01 | 0.00 | 0.01 | 80 | 1015.4 | |
| 20260506030311 | 55 | 0.0 | 0.0 | 0.00 | 0.00 | 0.00 | 80 | 1015.3 | |
| 20260506024811 | 55 | 0.0 | 0.0 | 0.00 | 0.00 | 0.00 | 80 | 1015.9 | |
| 20260506023311 | 55 | 0.0 | 0.0 | 0.00 | 0.00 | 0.00 | 80 | 1016.0 | |
| 20260506021810 | 55 | 0.0 | 0.0 | 0.00 | 0.00 | 0.00 | 80 | 1015.9 | |
| 20260506020310 | 55 | 0.0 | 0.0 | 0.00 | 0.00 | 0.00 | 80 | 1016.1 | |
| 20260506014810 | 55 | 0.0 | 0.0 | 0.00 | 0.00 | 0.00 | 80 | 1016.0 | |
| 20260506013310 | 55 | 0.0 | 0.0 | 0.00 | 0.00 | 0.00 | 80 | 1016.1 | |
| 20260506011810 | 55 | 0.0 | 0.0 | 0.00 | 0.00 | 0.00 | 80 | 1016.3 | |
| 20260506010310 | 55 | 0.0 | 0.0 | 0.00 | 0.00 | 0.00 | 80 | 1016.5 | |
| 20260506004810 | 55 | 0.0 | 0.0 | 0.00 | 0.00 | 0.00 | 80 | 1016.6 | |
| 20260506003310 | 55 | 0.0 | 0.0 | 0.00 | 0.00 | 0.00 | 80 | 1016.7 | |
| 20260506001810 | 55 | 0.0 | 0.0 | 0.00 | 0.00 | 0.00 | 80 | 1016.9 | |
| 20260506000310 | 55 | 0.0 | 0.0 | 0.00 | 0.00 | 0.00 | 80 | 1017.0 | |
| 20260505234810 | 55 | 0.0 | 0.0 | 0.00 | 0.00 | 0.00 | 80 | 1017.0 | |
| 20260505233311 | 55 | 0.0 | 0.0 | 0.00 | 0.00 | 0.00 | 79 | 1017.5 | |
| 20260505231810 | 55 | 0.0 | 0.0 | 0.00 | 0.00 | 0.00 | 79 | 1017.4 | |
| 20260505230311 | 55 | 0.0 | 0.0 | 0.00 | 0.00 | 0.00 | 79 | 1017.4 | |
| 20260505224811 | 55 | 0.0 | 0.0 | 0.00 | 0.00 | 0.00 | 79 | 1017.6 | |
| 20260505223311 | 55 | 0.0 | 0.0 | 0.00 | 0.00 | 0.00 | 79 | 1017.6 | |
| 20260505221811 | 55 | 0.0 | 0.0 | 0.00 | 0.00 | 0.00 | 79 | 1017.6 | |
| 20260505220311 | 55 | 0.0 | 0.0 | 0.00 | 0.00 | 0.08 | 79 | 1017.8 | |
| 20260505214810 | 55 | 0.0 | 0.0 | 0.00 | 0.00 | 0.08 | 78 | 1018.2 | |
| 20260505213310 | 55 | 0.0 | 0.0 | 0.00 | 0.00 | 0.08 | 78 | 1018.2 | |
| 20260505211811 | 55 | 0.0 | 0.0 | 0.00 | 0.00 | 0.08 | 78 | 1018.2 | |
| 20260505210310 | 55 | 0.0 | 0.0 | 0.00 | 0.00 | 0.08 | 78 | 1018.2 | |
| 20260505204810 | 56 | 0.0 | 0.0 | 0.00 | 0.00 | 0.08 | 78 | 1018.2 | |
| 20260505203310 | 55 | 0.0 | 0.0 | 0.00 | 0.00 | 0.08 | 78 | 1018.4 | |
| 20260505201810 | 55 | 0.0 | 0.0 | 0.00 | 0.00 | 0.08 | 78 | 1018.3 | |
| 20260505200311 | 55 | 0.0 | 0.0 | 0.00 | 0.00 | 0.08 | 78 | 1018.1 | |
| 20260505194811 | 55 | 0.0 | 0.0 | 0.00 | 0.00 | 0.08 | 78 | 1018.1 | |
| 20260505193311 | 55 | 0.0 | 0.0 | 0.00 | 0.00 | 0.08 | 77 | 1018.2 | |
| 20260505191810 | 55 | 0.0 | 0.0 | 0.00 | 0.00 | 0.08 | 77 | 1018.0 | |
| 20260505190310 | 55 | 0.0 | 0.0 | 0.00 | 0.00 | 0.08 | 77 | 1018.0 | |
| 20260505184810 | 55 | 0.0 | 0.0 | 0.00 | 0.00 | 0.08 | 77 | 1017.9 | |
| 20260505183310 | 55 | 0.0 | 0.0 | 0.00 | 0.00 | 0.08 | 77 | 1017.8 | |
| 20260505181811 | 55 | 0.0 | 0.0 | 0.00 | 0.00 | 0.08 | 77 | 1017.9 | |
| 20260505180310 | 55 | 0.0 | 0.0 | 0.00 | 0.00 | 0.08 | 77 | 1017.8 | |
| 20260505174811 | 55 | 0.0 | 0.0 | 0.00 | 0.00 | 0.08 | 77 | 1017.9 | |
| 20260505173311 | 55 | 0.0 | 0.0 | 0.00 | 0.00 | 0.08 | 77 | 1018.0 | |
| 20260505171811 | 56 | 0.0 | 0.0 | 0.00 | 0.00 | 0.08 | 77 | 1018.0 | |
| 20260505170310 | 56 | 0.0 | 0.0 | 0.00 | 0.00 | 0.08 | 76 | 1018.0 | |
| 20260505164810 | 56 | 0.0 | 0.0 | 0.00 | 0.00 | 0.08 | 76 | 1018.1 | |
| 20260505163311 | 56 | 0.0 | 0.0 | 0.00 | 0.00 | 0.08 | 76 | 1018.0 | |
| 20260505161811 | 56 | 0.0 | 0.0 | 0.00 | 0.00 | 0.08 | 75 | 1018.0 | |
| 20260505160310 | 56 | 0.0 | 0.0 | 0.00 | 0.00 | 0.08 | 75 | 1018.2 | |
| 20260505153311 | 56 | 0.0 | 0.0 | 0.00 | 0.00 | 0.08 | 75 | 1018.2 | |
| 20260505151811 | 56 | 0.0 | 0.0 | 0.00 | 0.00 | 0.08 | 75 | 1018.2 | |
| 20260505150310 | 56 | 0.0 | 0.0 | 0.00 | 0.00 | 0.08 | 74 | 1018.2 | |
| 20260505140310 | 56 | 0.0 | 0.0 | 0.00 | 0.00 | 0.08 | 74 | 1018.7 |